GW4733 Weather Reports


time (UTC)temp
F
wind
direction
speed
knots
gust
knots
rain 1hr
in
rain 24hr
in
rain mn
in
humidity
%
barometer
mb
20260504130325 58 317 0.9 3.5 0.00 0.00 0.00 46 1014.5
20260504120248 53 313 2.6 3.5 0.00 0.00 0.00 56 1014.8
20260504110715 47 109 0.9 0.9 0.00 0.00 0.00 72 1015.0
20260504110212 47 109 0.0 0.9 0.00 0.00 0.00 70 1015.3
20260504100130 45 108 0.0 0.9 0.00 0.00 0.00 77 1015.1
20260504081523 44 108 0.0 0.0 0.00 0.00 0.00 79 1015.3
20260504081019 44 108 0.0 0.0 0.00 0.00 0.00 80 1015.3
20260504080515 45 108 0.9 0.9 0.00 0.00 0.00 78 1015.3
20260504050335 40 310 0.0 0.0 0.00 0.00 0.00 83 1016.1
20260504045832 41 310 0.0 0.0 0.00 0.00 0.00 80 1016.2
20260504045331 40 310 0.0 0.0 0.00 0.00 0.00 81 1016.1
20260504044829 41 310 0.0 0.0 0.00 0.00 0.00 81 1016.3
20260504044326 41 310 0.0 0.0 0.00 0.00 0.00 78 1016.4
20260504043824 41 310 0.0 0.0 0.00 0.00 0.00 81 1016.2
20260504043320 40 310 0.0 0.0 0.00 0.00 0.00 81 1016.3
20260504042818 40 310 0.9 0.9 0.00 0.00 0.00 82 1016.0
20260504042314 41 310 0.0 0.0 0.00 0.00 0.00 81 1016.2
20260504041810 41 310 0.0 0.0 0.00 0.00 0.00 80 1016.1
20260504041306 42 310 0.0 0.0 0.00 0.00 0.00 78 1016.2
20260504040803 42 310 0.0 0.0 0.00 0.00 0.00 78 1016.0
20260504040300 43 310 0.0 0.0 0.00 0.00 0.00 73 1016.1
20260504035756 43 310 0.0 0.0 0.00 0.00 0.00 75 1016.0
20260504035254 43 310 0.0 0.0 0.00 0.00 0.00 76 1016.0
20260504034751 43 310 0.0 0.0 0.00 0.00 0.00 74 1015.8
20260504034248 43 310 0.0 0.9 0.00 0.00 0.00 71 1015.9
20260504033745 42 310 0.0 0.0 0.00 0.00 0.00 75 1015.8
20260504033243 42 310 0.0 0.0 0.00 0.00 0.00 78 1015.9
20260504032740 43 310 0.0 0.0 0.00 0.00 0.00 75 1015.7
20260504032237 43 310 0.0 0.0 0.00 0.00 0.00 74 1015.7
20260504031733 44 310 0.0 0.0 0.00 0.00 0.00 71 1015.8
20260504031231 44 310 0.0 0.0 0.00 0.00 0.00 69 1015.9
20260504030726 44 310 0.0 0.0 0.00 0.00 0.00 68 1015.7
20260504030224 45 310 0.0 0.0 0.00 0.00 0.00 68 1015.8
20260504025720 45 310 0.0 0.0 0.00 0.00 0.00 68 1015.8
20260504025217 46 310 0.0 0.0 0.00 0.00 0.00 67 1015.4
20260504024715 47 310 0.0 0.0 0.00 0.00 0.00 65 1015.6
20260504024211 46 310 0.0 0.0 0.00 0.00 0.00 65 1015.4
20260504023708 45 310 0.0 0.0 0.00 0.00 0.00 66 1015.4
20260504023203 46 310 0.0 0.0 0.00 0.00 0.00 68 1015.6
20260504022700 45 310 0.0 0.0 0.00 0.00 0.00 65 1015.2
20260504022156 45 310 0.0 0.0 0.00 0.00 0.00 65 1015.3
20260504021654 47 309 0.0 0.0 0.00 0.00 0.00 63 1015.4
20260504021150 48 309 0.0 0.0 0.00 0.00 0.00 59 1015.3
20260504020647 48 309 0.0 0.0 0.00 0.00 0.00 60 1015.5
20260504020143 48 309 0.0 0.0 0.00 0.00 0.00 59 1015.4
20260504015640 48 309 0.0 0.0 0.00 0.00 0.00 56 1015.4
20260504015137 48 309 0.0 0.0 0.00 0.00 0.00 55 1015.2
20260504014632 47 309 0.0 0.9 0.00 0.00 0.00 60 1015.4
20260504014130 47 310 0.0 0.0 0.00 0.00 0.00 63 1015.4
20260504013627 47 309 0.9 1.7 0.00 0.00 0.00 59 1015.4
20260504013124 49 309 0.0 0.0 0.00 0.00 0.00 60 1015.2
20260504012621 50 309 0.0 0.0 0.00 0.00 0.00 52 1015.2
20260504012120 50 309 0.0 0.0 0.00 0.00 0.00 54 1015.1
20260504011616 50 309 0.0 0.0 0.00 0.00 0.00 53 1014.9
20260504011112 52 309 0.0 0.0 0.00 0.00 0.00 48 1015.1
20260504010608 53 309 0.0 0.9 0.00 0.00 0.00 47 1015.1
20260504010104 52 309 0.0 0.0 0.00 0.00 0.00 43 1015.2
20260504005601 53 309 0.0 0.0 0.00 0.00 0.00 40 1015.0
20260504005058 53 309 0.0 0.0 0.00 0.00 0.00 41 1015.1
20260504004556 53 309 0.0 0.0 0.00 0.00 0.00 40 1014.9
20260504004053 53 309 0.0 0.0 0.00 0.00 0.00 43 1015.0
20260504003549 53 309 0.0 0.0 0.00 0.00 0.00 44 1014.9
20260504003046 54 309 0.0 1.7 0.00 0.00 0.00 43 1014.9
20260504002542 56 309 0.0 0.0 0.00 0.00 0.00 40 1014.8
20260504002040 57 309 0.9 1.7 0.00 0.00 0.00 35 1014.8
20260504001538 57 309 0.9 2.6 0.00 0.00 0.00 34 1014.8
20260504001034 57 309 0.9 1.7 0.00 0.00 0.00 34 1014.6
20260504000531 57 309 0.0 2.6 0.00 0.00 0.00 34 1014.9
20260504000028 58 309 0.0 0.0 0.00 0.00 0.00 36 1014.5
20260503235526 58 309 0.9 1.7 0.00 0.00 0.00 35 1014.7
20260503235023 58 309 1.7 2.6 0.00 0.00 0.00 35 1014.6
20260503234521 58 306 3.5 3.5 0.00 0.00 0.00 36 1014.6
20260503234019 59 304 3.5 6.1 0.00 0.00 0.00 36 1014.5
20260503233515 59 313 4.3 6.1 0.00 0.00 0.00 34 1014.5
20260503233011 60 318 6.1 7.8 0.00 0.00 0.00 33 1014.4
20260503232508 60 308 7.0 9.6 0.00 0.00 0.00 32 1014.4
20260503232006 60 295 7.8 9.6 0.00 0.00 0.00 33 1014.4
20260503231503 61 300 7.8 9.6 0.00 0.00 0.00 33 1014.3
20260503231000 61 331 7.0 9.6 0.00 0.00 0.00 33 1014.2
20260503230456 61 283 8.7 9.6 0.00 0.00 0.00 32 1014.4
20260503225954 61 326 7.8 12.2 0.00 0.00 0.00 35 1014.3
20260503225450 61 321 7.0 7.8 0.00 0.00 0.00 30 1014.2
20260503224946 62 317 7.0 7.8 0.00 0.00 0.00 34 1014.3
20260503224443 62 348 6.1 7.8 0.00 0.00 0.00 30 1014.3
20260503223941 62 278 9.6 12.2 0.00 0.00 0.00 31 1014.2
20260503223439 62 294 12.2 14.8 0.00 0.00 0.00 32 1014.2
20260503222934 62 305 7.8 9.6 0.00 0.00 0.00 31 1014.3
20260503222433 62 308 7.0 9.6 0.00 0.00 0.00 33 1014.3
20260503221931 62 310 12.2 13.9 0.00 0.00 0.00 30 1014.4
20260503221429 62 306 14.8 15.6 0.00 0.00 0.00 30 1014.3
20260503220925 62 296 6.1 8.7 0.00 0.00 0.00 31 1014.5
20260503220421 62 288 7.8 12.2 0.00 0.00 0.00 33 1014.4
20260503215919 62 305 6.1 7.8 0.00 0.00 0.00 33 1014.3
20260503215415 62 312 6.1 7.0 0.00 0.00 0.00 33 1014.4
20260503214913 62 313 8.7 8.7 0.00 0.00 0.00 33 1014.3
20260503214410 63 292 8.7 15.6 0.00 0.00 0.00 31 1014.5
20260503213908 63 298 6.1 7.0 0.00 0.00 0.00 31 1014.4
20260503213406 63 318 3.5 8.7 0.00 0.00 0.00 30 1014.5
20260503212902 63 292 7.8 8.7 0.00 0.00 0.00 32 1014.4
20260503212400 62 322 12.2 13.0 0.00 0.00 0.00 32 1014.4
20260503211857 63 305 8.7 9.6 0.00 0.00 0.00 31 1014.6
20260503211353 62 303 7.0 8.7 0.00 0.00 0.00 31 1014.4
20260503210848 61 296 5.2 6.1 0.00 0.00 0.00 30 1014.3
20260503210346 60 286 5.2 8.7 0.00 0.00 0.00 30 1014.5
20260503205841 62 289 8.7 13.0 0.00 0.00 0.00 32 1014.4
20260503205338 63 312 5.2 7.0 0.00 0.00 0.00 30 1014.5
20260503204834 62 308 6.1 9.6 0.00 0.00 0.00 33 1014.5
20260503204332 63 304 7.0 7.8 0.00 0.00 0.00 31 1014.6
20260503203829 61 309 2.6 5.2 0.00 0.00 0.00 28 1014.6
20260503203326 62 326 6.1 9.6 0.00 0.00 0.00 29 1014.6
20260503202823 62 311 12.2 16.5 0.00 0.00 0.00 30 1014.5
20260503202321 64 304 7.8 13.9 0.00 0.00 0.00 30 1014.6
20260503201819 62 298 5.2 12.2 0.00 0.00 0.00 29 1014.6
20260503201316 63 310 7.8 11.3 0.00 0.00 0.00 30 1014.7
20260503200813 62 299 7.8 8.7 0.00 0.00 0.00 31 1014.8
20260503200309 62 309 7.0 8.7 0.00 0.00 0.00 32 1014.9
20260503195807 60 307 7.0 9.6 0.00 0.00 0.00 33 1015.1
20260503195304 61 311 5.2 7.0 0.00 0.00 0.00 35 1015.1
20260503194800 62 321 9.6 9.6 0.00 0.00 0.00 32 1015.3
20260503194256 62 330 6.1 7.0 0.00 0.00 0.00 30 1015.2
20260503193752 62 305 7.8 8.7 0.00 0.00 0.00 29 1015.3
20260503193249 61 340 7.0 12.2 0.00 0.00 0.00 33 1015.4
20260503192744 61 326 12.2 13.9 0.00 0.00 0.00 30 1015.5
20260503192239 61 314 8.7 13.9 0.00 0.00 0.00 33 1015.6
20260503191737 61 296 4.3 6.1 0.00 0.00 0.00 32 1015.6
20260503191234 60 317 7.0 13.0 0.00 0.00 0.00 32 1015.7
20260503190731 60 315 8.7 11.3 0.00 0.00 0.00 31 1015.6
20260503190227 60 318 5.2 11.3 0.00 0.00 0.00 31 1015.8
20260503185725 59 349 7.0 11.3 0.00 0.00 0.00 29 1015.8
20260503185220 61 296 12.2 13.9 0.00 0.00 0.00 34 1015.8
20260503184715 60 292 7.0 9.6 0.00 0.00 0.00 35 1016.0
20260503184211 59 317 6.1 8.7 0.00 0.00 0.00 29 1016.0
20260503183708 60 297 6.1 12.2 0.00 0.00 0.00 32 1016.1
20260503183205 60 313 9.6 15.6 0.00 0.00 0.00 34 1016.0
20260503182704 60 300 12.2 19.1 0.00 0.00 0.00 30 1016.0
20260503182202 59 280 6.1 8.7 0.00 0.00 0.00 34 1016.2
20260503181658 58 338 14.8 18.2 0.00 0.00 0.00 33 1016.1
20260503181155 59 298 4.3 15.6 0.00 0.00 0.00 31 1016.3
20260503180651 59 320 9.6 11.3 0.00 0.00 0.00 36 1016.2
20260503180150 59 318 7.8 16.5 0.00 0.00 0.00 34 1016.3
20260503175646 58 336 12.2 14.8 0.00 0.00 0.00 35 1016.6
20260503175144 58 321 11.3 13.9 0.00 0.00 0.00 33 1016.4
20260503174640 59 312 5.2 12.2 0.00 0.00 0.00 38 1016.4
20260503174137 58 309 5.2 7.8 0.00 0.00 0.00 34 1016.6
20260503173632 59 356 8.7 12.2 0.00 0.00 0.00 33 1016.8
20260503173129 57 319 7.8 9.6 0.00 0.00 0.00 39 1016.7
20260503172626 57 332 7.8 14.8 0.00 0.00 0.00 38 1016.8
20260503172124 57 325 10.4 13.9 0.00 0.00 0.00 39 1016.8
20260503171620 56 304 9.6 13.9 0.00 0.00 0.00 35 1016.7
20260503171117 57 313 12.2 18.2 0.00 0.00 0.00 39 1017.0
20260503170614 56 303 6.1 13.0 0.00 0.00 0.00 39 1017.1
20260503170110 56 303 13.9 15.6 0.00 0.00 0.00 38 1017.0
20260503151006 52 320 4.3 7.8 0.00 0.00 0.00 47 1018.2
20260503150502 52 320 11.3 12.2 0.00 0.00 0.00 46 1018.1